sat.trackr.live / text

‹ back to catalog

2025-313AF

NORAD 67277 · 2025-313AF

PAYLOAD ACTIVE UNKNOWN

§ Identity

Operator
Country
TBD
Launch date
2025-12-28
Launch site
VOSTO
Launch vehicle
Mass (kg)
RCS (m²)

External: N2YO · Heavens-Above · Gunter

§ Orbital elements

Epoch: 2026-09-20T22:36:16.688448Z

Period
94.51 min
Inclination
97.3829°
Eccentricity
0.0014136
Mean motion
15.23615030 rev/d
Perigee alt
485.2 km
Apogee alt
504.7 km
Semi-major
6,873.1 km
B*
1.7326e-4
RAAN
336.9500°
Arg perigee
36.8742°
Mean anomaly
323.3464°
Rev number
4,052

§ Raw data

2025-313AF1 67277U 25313AF  26263.94185982  .00004088  00000+0  17326-3 0  99992 67277  97.3829 336.9500 0014136  36.8742 323.3464 15.23615030 40522

JSON: /api/v1/satellites/67277 · /tle

For live sub-satellite position, see the globe view (requires WebGL).

§ Visibility from observer

Set your observer location to see the next 7 days of passes ≥ 10°. The values pass through the URL so the page stays shareable.

No JS? Fill the form by hand. The geolocation button needs JavaScript.

§ Radio — SatNOGS DB

ModeDescriptionDownlinkUplink
LoRa LoRa telemetry 435.840 MHz

1 transmitter · refreshed weekly from db.satnogs.org